Home   Weather   Karaganda   Past weeks

Flag for Kazakhstan Past Weather in Karaganda, Kazakhstan — Yesterday and Last 2 Weeks

Now
5 °F

Passing clouds.


Feels Like: -17 °F
Forecast: 4 / 19 °F
Wind: 24 mph from Southwest

Location: Karaganda

Current Time: Jan 25, 2017 at 3:53:05 am

Latest Report: Jan 25, 2017 at 3:00 am


Visibility: 1 mi

Pressure: 30.33 "Hg (28.18 "Hg at 555m altitude)

Humidity: 85%

Dew Point: 1 °F

Location of KaragandaLocation

Past Weather in Karaganda — Graph

°F

Karaganda Temperature Yesterday

Maximum temperature yesterday: 12 °F (at 7:00 am)
Minimum temperature yesterday: 5 °F (at 12:00 am)
Average temperature yesterday: 9 °F

High & Low Weather Summary for the Past Weeks

 TemperatureHumidityPressure
High27 °F (Jan 22, 7:30 pm)100% (Jan 11, 6:00 pm)30.57 "Hg (Jan 11, 6:00 pm)
Low-20 °F (Jan 14, 2:00 am)67% (Jan 10, 3:30 pm)29.65 "Hg (Jan 23, 9:30 am)
Average5 °F86%30.24 "Hg
* Reported Jan 10 2:00 am — Jan 25 2:30 am, Karaganda, Weather by CustomWeather, © 2017

Note: Actual official high and low records may vary slightly from our data, if they occured in-between our weather recording intervals... More about our weather records

Advertising

Karaganda Weather History for the Previous 24 Hours

Scroll right to see more
 ConditionsComfort  
Time TempWeatherWind HumidityBarometerVisibility
2:30 am
Wed, Jan 25
5 °FPassing clouds.26 mph92%30.33 "Hg1 mi
2:00 am5 °FLow level haze.24 mph92%30.36 "Hg1 mi
1:30 am5 °FPassing clouds.26 mph92%30.36 "Hg1 mi
1:00 am5 °FPassing clouds.26 mph92%30.33 "Hg2 mi
12:30 am5 °FPassing clouds.29 mph92%30.33 "Hg1 mi
12:00 am5 °FPassing clouds.29 mph92%30.33 "Hg1 mi
11:30 pm
Tue, Jan 24
5 °FPassing clouds.24 mph92%30.33 "Hg1 mi
11:00 pm5 °FPassing clouds.24 mph92%30.33 "Hg1 mi
10:30 pm5 °FPassing clouds.26 mph92%30.33 "Hg2 mi
10:00 pm5 °FPassing clouds.20 mph92%30.33 "HgN/A
9:30 pm5 °FPassing clouds.22 mph92%30.33 "Hg3 mi
9:00 pm5 °FPassing clouds.24 mph92%30.30 "Hg2 mi
8:30 pm5 °FPassing clouds.26 mph92%30.30 "Hg2 mi
8:00 pm5 °FPassing clouds.22 mph92%30.30 "HgN/A
7:30 pm5 °FPassing clouds.20 mph92%30.30 "HgN/A
7:00 pm7 °FPassing clouds.17 mph85%30.27 "HgN/A
6:30 pm7 °FScattered clouds.20 mph92%30.27 "HgN/A
6:00 pm9 °FScattered clouds.22 mph85%30.24 "Hg3 mi
5:30 pm9 °FMore clouds than sun.22 mph92%30.24 "Hg2 mi
5:00 pm10 °FMore clouds than sun.22 mph85%30.24 "Hg2 mi
4:30 pm10 °FMore clouds than sun.22 mph92%30.21 "Hg2 mi
4:00 pm12 °FBroken clouds.22 mph92%30.21 "Hg2 mi
3:30 pm12 °FSnow. Mostly cloudy.29 mph92%30.18 "Hg1 mi
3:00 pm12 °FSnow. Broken clouds.20 mph92%30.18 "Hg2 mi
2:30 pm12 °FSnow. Broken clouds.22 mph92%30.18 "Hg1 mi
2:00 pm12 °FBroken clouds.20 mph92%30.18 "Hg2 mi
1:30 pm12 °FBroken clouds.22 mph85%30.18 "Hg2 mi
1:00 pm12 °FPartly sunny.22 mph85%30.15 "Hg4 mi
12:30 pm12 °FBroken clouds.20 mph85%30.15 "HgN/A
12:00 pm10 °FBroken clouds.15 mph92%30.15 "HgN/A
11:30 am10 °FLight snow. Broken clouds.17 mph92%30.15 "HgN/A
11:00 am10 °FLight snow. Broken clouds.17 mph92%30.15 "Hg4 mi
10:30 am9 °FScattered clouds.20 mph92%30.12 "Hg4 mi
10:00 am10 °FLight snow. Partly sunny.22 mph85%30.12 "Hg4 mi
9:30 am10 °FLight snow. Passing clouds.22 mph92%30.09 "Hg3 mi
9:00 am10 °FLight snow. Partly cloudy.22 mph92%30.09 "Hg3 mi
8:30 am10 °FLight snow. Passing clouds.22 mph92%30.07 "Hg2 mi
8:00 am12 °FSnow. Overcast.22 mph92%30.07 "Hg1 mi
7:30 am12 °FSnow. Overcast.26 mph92%30.07 "Hg1 mi
7:00 am12 °FSnow. Overcast.22 mph92%30.04 "Hg1 mi
6:30 am10 °FSnow. Overcast.22 mph92%30.04 "Hg1 mi
6:00 am10 °FSnow. Overcast.22 mph92%30.04 "Hg1 mi
5:30 am9 °FSnow. Overcast.22 mph92%30.04 "Hg1 mi
5:00 am9 °FSnow. Overcast.24 mph92%30.04 "Hg1 mi
4:30 am9 °FSnow. Overcast.22 mph92%30.04 "Hg1 mi
4:00 am9 °FOvercast.24 mph85%30.04 "Hg1 mi
3:30 am7 °FOvercast.22 mph92%30.04 "Hg2 mi
3:00 am7 °FOvercast.22 mph92%30.04 "Hg1 mi
Weather by CustomWeather, © 2017

See weather overviewHow to use our weather pages